Time,TemperatureF,DewpointF,PressureIn,WindDirection,WindDirectionDegrees,WindSpeedMPH,WindSpeedGustMPH,Humidity,HourlyPrecipIn,Conditions,Clouds,dailyrainin,SoftwareType,DateUTC
2013-05-05 00:02:00,61.0,39.0,-100.00,WNW,299,9.0,21.0,46,0.00,,,-99.99,,2013-05-05 04:02:00,
2013-05-05 00:12:00,61.0,39.0,-100.00,NW,307,9.0,21.0,46,0.00,,,-99.99,,2013-05-05 04:12:00,
2013-05-05 00:23:00,60.0,39.0,-100.00,WNW,292,9.0,21.0,47,0.00,,,-99.99,,2013-05-05 04:23:00,
2013-05-05 00:33:00,60.0,37.0,-100.00,WNW,299,9.0,21.0,46,0.00,,,-99.99,,2013-05-05 04:33:00,
2013-05-05 00:43:00,59.0,39.0,-100.00,WNW,295,9.0,21.0,49,0.00,,,-99.99,,2013-05-05 04:43:00,
2013-05-05 00:52:00,59.0,39.0,-100.00,WNW,297,8.0,21.0,49,0.00,,,-99.99,,2013-05-05 04:52:00,
2013-05-05 01:02:00,60.0,39.0,-100.00,WNW,288,8.0,21.0,49,0.00,,,-99.99,,2013-05-05 05:02:00,
2013-05-05 01:12:00,60.0,41.0,-100.00,WNW,293,9.0,21.0,50,0.00,,,-99.99,,2013-05-05 05:12:00,
2013-05-05 01:22:00,60.0,41.0,-100.00,WNW,302,9.0,21.0,50,0.00,,,-99.99,,2013-05-05 05:22:00,
2013-05-05 01:32:00,59.0,39.0,-100.00,WNW,297,9.0,21.0,50,0.00,,,-99.99,,2013-05-05 05:32:00,
2013-05-05 01:42:00,60.0,43.0,-100.00,WNW,293,10.0,21.0,53,0.00,,,-99.99,,2013-05-05 05:42:00,
2013-05-05 01:51:00,60.0,41.0,-100.00,NW,304,8.0,21.0,51,0.00,,,-99.99,,2013-05-05 05:51:00,
2013-05-05 02:01:00,59.0,41.0,-100.00,WNW,302,9.0,21.0,53,0.00,,,-99.99,,2013-05-05 06:01:00,
2013-05-05 02:12:00,59.0,41.0,-100.00,NW,307,8.0,21.0,53,0.00,,,-99.99,,2013-05-05 06:12:00,
2013-05-05 02:21:00,58.0,41.0,-100.00,WNW,303,7.0,21.0,53,0.00,,,-99.99,,2013-05-05 06:21:00,
2013-05-05 02:32:00,59.0,41.0,-100.00,WNW,290,8.0,21.0,54,0.00,,,-99.99,,2013-05-05 06:32:00,
2013-05-05 02:42:00,59.0,41.0,-100.00,WNW,289,9.0,21.0,54,0.00,,,-99.99,,2013-05-05 06:42:00,
2013-05-05 02:52:00,58.0,41.0,-100.00,West,279,7.0,21.0,55,0.00,,,-99.99,,2013-05-05 06:52:00,
2013-05-05 03:01:00,57.0,41.0,-100.00,WNW,289,6.0,21.0,56,0.00,,,-99.99,,2013-05-05 07:01:00,
2013-05-05 03:11:00,57.0,41.0,-100.00,WNW,283,7.0,7.0,56,0.00,,,-99.99,,2013-05-05 07:11:00,
2013-05-05 03:22:00,55.0,37.0,-100.00,WNW,293,8.0,10.0,55,0.00,,,-99.99,,2013-05-05 07:22:00,
2013-05-05 03:32:00,56.0,41.0,-100.00,WNW,282,7.0,10.0,58,0.00,,,-99.99,,2013-05-05 07:32:00,
2013-05-05 03:42:00,55.0,39.0,-100.00,WNW,288,6.0,10.0,58,0.00,,,-99.99,,2013-05-05 07:42:00,
2013-05-05 03:52:00,54.0,39.0,-100.00,WNW,295,6.0,10.0,59,0.00,,,-99.99,,2013-05-05 07:52:00,
2013-05-05 04:02:00,54.0,39.0,-100.00,West,275,6.0,10.0,59,0.00,,,-99.99,,2013-05-05 08:02:00,
2013-05-05 04:11:00,55.0,39.0,-100.00,West,280,7.0,10.0,58,0.00,,,-99.99,,2013-05-05 08:11:00,
2013-05-05 04:21:00,54.0,37.0,-100.00,WNW,293,8.0,10.0,58,0.00,,,-99.99,,2013-05-05 08:21:00,
2013-05-05 04:32:00,54.0,39.0,-100.00,West,275,7.0,10.0,59,0.00,,,-99.99,,2013-05-05 08:32:00,
2013-05-05 04:42:00,51.0,36.0,-100.00,WNW,283,7.0,10.0,59,0.00,,,-99.99,,2013-05-05 08:42:00,
2013-05-05 04:53:00,52.0,37.0,-100.00,WNW,285,7.0,10.0,59,0.00,,,-99.99,,2013-05-05 08:53:00,
2013-05-05 05:01:00,53.0,37.0,-100.00,WNW,293,7.0,10.0,59,0.00,,,-99.99,,2013-05-05 09:01:00,
2013-05-05 05:11:00,53.0,37.0,-100.00,WNW,293,7.0,10.0,59,0.00,,,-99.99,,2013-05-05 09:11:00,
2013-05-05 05:21:00,53.0,37.0,-100.00,WNW,292,8.0,10.0,58,0.00,,,-99.99,,2013-05-05 09:21:00,
2013-05-05 05:33:00,53.0,37.0,-100.00,WNW,285,9.0,10.0,58,0.00,,,-99.99,,2013-05-05 09:33:00,
2013-05-05 05:42:00,54.0,39.0,-100.00,WNW,288,10.0,12.0,58,0.00,,,-99.99,,2013-05-05 09:42:00,
2013-05-05 05:52:00,53.0,37.0,-100.00,WNW,286,9.0,12.0,59,0.00,,,-99.99,,2013-05-05 09:52:00,
2013-05-05 06:03:00,51.0,36.0,-100.00,WNW,283,8.0,12.0,59,0.00,,,-99.99,,2013-05-05 10:03:00,
2013-05-05 06:12:00,51.0,36.0,-100.00,WNW,297,9.0,12.0,59,0.00,,,-99.99,,2013-05-05 10:12:00,
2013-05-05 06:22:00,53.0,37.0,-100.00,West,275,10.0,12.0,59,0.00,,,-99.99,,2013-05-05 10:22:00,
2013-05-05 06:32:00,52.0,36.0,-100.00,WNW,295,11.0,14.0,58,0.00,,,-99.99,,2013-05-05 10:32:00,
2013-05-05 06:42:00,52.0,37.0,-100.00,WNW,286,9.0,14.0,58,0.00,,,-99.99,,2013-05-05 10:42:00,
2013-05-05 06:52:00,52.0,37.0,-100.00,West,278,8.0,14.0,59,0.00,,,-99.99,,2013-05-05 10:52:00,
2013-05-05 07:01:00,51.0,37.0,-100.00,West,278,7.0,14.0,59,0.00,,,-99.99,,2013-05-05 11:01:00,
2013-05-05 07:12:00,51.0,36.0,-100.00,West,265,7.0,14.0,59,0.00,,,-99.99,,2013-05-05 11:12:00,
2013-05-05 07:22:00,51.0,36.0,-100.00,West,269,7.0,14.0,58,0.00,,,-99.99,,2013-05-05 11:22:00,
2013-05-05 07:32:00,52.0,37.0,-100.00,WNW,288,7.0,14.0,58,0.00,,,-99.99,,2013-05-05 11:32:00,
2013-05-05 07:42:00,52.0,37.0,-100.00,WNW,283,7.0,14.0,58,0.00,,,-99.99,,2013-05-05 11:42:00,
2013-05-05 07:52:00,53.0,37.0,-100.00,West,273,5.0,14.0,56,0.00,,,-99.99,,2013-05-05 11:52:00,
2013-05-05 08:02:00,54.0,39.0,-100.00,West,272,6.0,14.0,58,0.00,,,-99.99,,2013-05-05 12:02:00,
2013-05-05 08:11:00,54.0,39.0,-100.00,West,276,6.0,14.0,59,0.00,,,-99.99,,2013-05-05 12:11:00,
2013-05-05 08:21:00,55.0,37.0,-100.00,WNW,285,8.0,14.0,55,0.00,,,-99.99,,2013-05-05 12:21:00,
2013-05-05 08:32:00,55.0,37.0,-100.00,West,269,7.0,14.0,55,0.00,,,-99.99,,2013-05-05 12:32:00,
2013-05-05 08:42:00,55.0,37.0,-100.00,WNW,295,6.0,14.0,55,0.00,,,-99.99,,2013-05-05 12:42:00,
2013-05-05 08:52:00,55.0,37.0,-100.00,WSW,258,7.0,14.0,54,0.00,,,-99.99,,2013-05-05 12:52:00,
2013-05-05 09:01:00,56.0,39.0,-100.00,West,279,8.0,14.0,56,0.00,,,-99.99,,2013-05-05 13:01:00,
2013-05-05 09:11:00,56.0,39.0,-100.00,WNW,290,10.0,14.0,56,0.00,,,-99.99,,2013-05-05 13:11:00,
2013-05-05 09:21:00,55.0,36.0,-100.00,WNW,295,10.0,14.0,50,0.00,,,-99.99,,2013-05-05 13:21:00,
2013-05-05 09:32:00,59.0,39.0,-100.00,West,268,12.0,17.0,49,0.00,,,-99.99,,2013-05-05 13:32:00,
2013-05-05 09:42:00,58.0,36.0,-100.00,WNW,286,14.0,17.0,46,0.00,,,-99.99,,2013-05-05 13:42:00,
2013-05-05 09:52:00,59.0,37.0,-100.00,West,280,14.0,17.0,46,0.00,,,-99.99,,2013-05-05 13:52:00,
2013-05-05 10:02:00,58.0,34.0,-100.00,WNW,293,14.0,17.0,42,0.00,,,-99.99,,2013-05-05 14:02:00,
2013-05-05 10:11:00,61.0,36.0,-100.00,WNW,300,15.0,17.0,40,0.00,,,-99.99,,2013-05-05 14:11:00,
2013-05-05 10:21:00,63.0,37.0,-100.00,WNW,296,13.0,17.0,42,0.00,,,-99.99,,2013-05-05 14:21:00,
2013-05-05 10:32:00,61.0,34.0,-100.00,WNW,296,14.0,17.0,37,0.00,,,-99.99,,2013-05-05 14:32:00,
2013-05-05 10:42:00,63.0,37.0,-100.00,WNW,297,16.0,22.0,40,0.00,,,-99.99,,2013-05-05 14:42:00,
2013-05-05 10:52:00,62.0,34.0,-100.00,WNW,289,14.0,22.0,36,0.00,,,-99.99,,2013-05-05 14:52:00,
2013-05-05 11:02:00,63.0,36.0,-100.00,WNW,292,12.0,22.0,36,0.00,,,-99.99,,2013-05-05 15:02:00,
2013-05-05 11:11:00,64.0,36.0,-100.00,WNW,290,14.0,22.0,36,0.00,,,-99.99,,2013-05-05 15:11:00,
2013-05-05 11:21:00,68.0,37.0,-100.00,WNW,286,13.0,22.0,33,0.00,,,-99.99,,2013-05-05 15:21:00,
2013-05-05 11:33:00,65.0,34.0,-100.00,NW,309,12.0,22.0,32,0.00,,,-99.99,,2013-05-05 15:33:00,
2013-05-05 11:43:00,66.0,34.0,-100.00,West,275,10.0,22.0,32,0.00,,,-99.99,,2013-05-05 15:43:00,
2013-05-05 11:53:00,65.0,34.0,-100.00,WNW,285,12.0,22.0,32,0.00,,,-99.99,,2013-05-05 15:53:00,
2013-05-05 12:03:00,66.0,34.0,-100.00,NW,321,11.0,22.0,32,0.00,,,-99.99,,2013-05-05 16:03:00,
2013-05-05 12:12:00,67.0,36.0,-100.00,WNW,297,9.0,22.0,32,0.00,,,-99.99,,2013-05-05 16:12:00,
2013-05-05 12:23:00,67.0,36.0,-100.00,West,276,11.0,22.0,32,0.00,,,-99.99,,2013-05-05 16:23:00,
2013-05-05 12:32:00,68.0,37.0,-100.00,WNW,288,12.0,22.0,33,0.00,,,-99.99,,2013-05-05 16:32:00,
2013-05-05 12:42:00,67.0,34.0,-100.00,West,275,11.0,22.0,29,0.00,,,-99.99,,2013-05-05 16:42:00,
2013-05-05 12:52:00,68.0,36.0,-100.00,WNW,299,12.0,22.0,31,0.00,,,-99.99,,2013-05-05 16:52:00,
2013-05-05 13:02:00,68.0,34.0,-100.00,NW,312,14.0,22.0,29,0.00,,,-99.99,,2013-05-05 17:02:00,
2013-05-05 13:12:00,68.0,34.0,-100.00,West,279,14.0,22.0,28,0.00,,,-99.99,,2013-05-05 17:12:00,
2013-05-05 13:23:00,69.0,32.0,-100.00,West,261,13.0,22.0,27,0.00,,,-99.99,,2013-05-05 17:23:00,
2013-05-05 13:32:00,69.0,32.0,-100.00,West,276,15.0,22.0,25,0.00,,,-99.99,,2013-05-05 17:32:00,
2013-05-05 13:42:00,69.0,32.0,-100.00,West,259,12.0,22.0,27,0.00,,,-99.99,,2013-05-05 17:42:00,
2013-05-05 13:52:00,69.0,32.0,-100.00,West,262,14.0,22.0,25,0.00,,,-99.99,,2013-05-05 17:52:00,
2013-05-05 14:01:00,70.0,32.0,-100.00,NW,312,12.0,22.0,24,0.00,,,-99.99,,2013-05-05 18:01:00,
2013-05-05 14:12:00,71.0,32.0,-100.00,WSW,256,13.0,22.0,24,0.00,,,-99.99,,2013-05-05 18:12:00,
2013-05-05 14:21:00,71.0,32.0,-100.00,West,265,12.0,22.0,24,0.00,,,-99.99,,2013-05-05 18:21:00,
2013-05-05 14:32:00,71.0,32.0,-100.00,NW,309,13.0,22.0,24,0.00,,,-99.99,,2013-05-05 18:32:00,
2013-05-05 14:42:00,71.0,32.0,-100.00,NNW,334,12.0,22.0,22,0.00,,,-99.99,,2013-05-05 18:42:00,
2013-05-05 14:52:00,71.0,32.0,-100.00,WNW,299,12.0,22.0,22,0.00,,,-99.99,,2013-05-05 18:52:00,
2013-05-05 15:01:00,72.0,32.0,-100.00,West,276,11.0,22.0,23,0.00,,,-99.99,,2013-05-05 19:01:00,
2013-05-05 15:12:00,72.0,30.0,-100.00,NW,310,13.0,22.0,20,0.00,,,-99.99,,2013-05-05 19:12:00,
2013-05-05 15:21:00,73.0,36.0,-100.00,West,262,13.0,22.0,27,0.00,,,-99.99,,2013-05-05 19:21:00,
2013-05-05 15:32:00,73.0,30.0,-100.00,WSW,258,12.0,22.0,20,0.00,,,-99.99,,2013-05-05 19:32:00,
2013-05-05 15:42:00,73.0,32.0,-100.00,West,276,12.0,22.0,22,0.00,,,-99.99,,2013-05-05 19:42:00,
2013-05-05 15:52:00,72.0,30.0,-100.00,West,273,12.0,22.0,20,0.00,,,-99.99,,2013-05-05 19:52:00,
2013-05-05 16:01:00,74.0,32.0,-100.00,NW,306,9.0,22.0,23,0.00,,,-99.99,,2013-05-05 20:01:00,
2013-05-05 16:11:00,73.0,28.0,-100.00,WNW,295,12.0,22.0,19,0.00,,,-99.99,,2013-05-05 20:11:00,
2013-05-05 16:21:00,73.0,30.0,-100.00,WNW,285,12.0,22.0,20,0.00,,,-99.99,,2013-05-05 20:21:00,
2013-05-05 16:32:00,74.0,34.0,-100.00,NW,306,11.0,22.0,23,0.00,,,-99.99,,2013-05-05 20:32:00,
2013-05-05 16:42:00,74.0,28.0,-100.00,NW,314,9.0,22.0,18,0.00,,,-99.99,,2013-05-05 20:42:00,
2013-05-05 16:52:00,74.0,32.0,-100.00,West,265,10.0,22.0,20,0.00,,,-99.99,,2013-05-05 20:52:00,
2013-05-05 17:02:00,72.0,21.0,-100.00,NW,324,11.0,22.0,14,0.00,,,-99.99,,2013-05-05 21:02:00,
2013-05-05 17:11:00,73.0,30.0,-100.00,NW,309,9.0,22.0,20,0.00,,,-99.99,,2013-05-05 21:11:00,
2013-05-05 17:21:00,72.0,25.0,-100.00,West,264,11.0,22.0,16,0.00,,,-99.99,,2013-05-05 21:21:00,
2013-05-05 17:33:00,72.0,27.0,-100.00,WNW,300,12.0,22.0,18,0.00,,,-99.99,,2013-05-05 21:33:00,
2013-05-05 17:42:00,72.0,28.0,-100.00,NW,306,9.0,22.0,19,0.00,,,-99.99,,2013-05-05 21:42:00,
2013-05-05 17:53:00,70.0,25.0,-100.00,NW,307,11.0,22.0,18,0.00,,,-99.99,,2013-05-05 21:53:00,
2013-05-05 18:02:00,70.0,25.0,-100.00,WNW,288,11.0,22.0,18,0.00,,,-99.99,,2013-05-05 22:02:00,
2013-05-05 18:12:00,71.0,27.0,-100.00,West,261,11.0,22.0,18,0.00,,,-99.99,,2013-05-05 22:12:00,
2013-05-05 18:22:00,72.0,28.0,-100.00,NW,306,9.0,22.0,19,0.00,,,-99.99,,2013-05-05 22:22:00,
2013-05-05 18:33:00,71.0,27.0,-100.00,West,272,8.0,22.0,18,0.00,,,-99.99,,2013-05-05 22:33:00,
2013-05-05 18:42:00,70.0,25.0,-100.00,NW,304,9.0,22.0,18,0.00,,,-99.99,,2013-05-05 22:42:00,
2013-05-05 18:52:00,70.0,28.0,-100.00,West,280,8.0,22.0,20,0.00,,,-99.99,,2013-05-05 22:52:00,
2013-05-05 19:02:00,70.0,28.0,-100.00,West,279,9.0,22.0,20,0.00,,,-99.99,,2013-05-05 23:02:00,
2013-05-05 19:12:00,70.0,30.0,-100.00,West,269,9.0,22.0,22,0.00,,,-99.99,,2013-05-05 23:12:00,
2013-05-05 19:21:00,69.0,27.0,-100.00,West,264,9.0,22.0,19,0.00,,,-99.99,,2013-05-05 23:21:00,
2013-05-05 19:32:00,70.0,25.0,-100.00,West,278,11.0,22.0,18,0.00,,,-99.99,,2013-05-05 23:32:00,
2013-05-05 19:42:00,69.0,25.0,-100.00,WNW,295,7.0,22.0,19,0.00,,,-99.99,,2013-05-05 23:42:00,
2013-05-05 19:52:00,69.0,28.0,-100.00,West,273,6.0,22.0,22,0.00,,,-99.99,,2013-05-05 23:52:00,
2013-05-05 20:01:00,67.0,25.0,-100.00,West,276,6.0,22.0,19,0.00,,,-99.99,,2013-05-06 00:01:00,
2013-05-05 20:11:00,68.0,27.0,-100.00,WNW,292,6.0,22.0,20,0.00,,,-99.99,,2013-05-06 00:11:00,
2013-05-05 20:21:00,67.0,25.0,-100.00,WNW,289,7.0,22.0,20,0.00,,,-99.99,,2013-05-06 00:21:00,
2013-05-05 20:32:00,66.0,23.0,-100.00,West,269,7.0,22.0,19,0.00,,,-99.99,,2013-05-06 00:32:00,
2013-05-05 20:42:00,66.0,23.0,-100.00,West,278,6.0,22.0,19,0.00,,,-99.99,,2013-05-06 00:42:00,
2013-05-05 20:51:00,67.0,23.0,-100.00,West,278,8.0,22.0,18,0.00,,,-99.99,,2013-05-06 00:51:00,
2013-05-05 21:01:00,65.0,25.0,-100.00,West,264,7.0,22.0,20,0.00,,,-99.99,,2013-05-06 01:01:00,
2013-05-05 21:11:00,65.0,25.0,-100.00,West,272,6.0,22.0,20,0.00,,,-99.99,,2013-05-06 01:11:00,
2013-05-05 21:21:00,65.0,23.0,-100.00,West,265,6.0,22.0,20,0.00,,,-99.99,,2013-05-06 01:21:00,
2013-05-05 21:32:00,65.0,23.0,-100.00,West,269,6.0,22.0,19,0.00,,,-99.99,,2013-05-06 01:32:00,
2013-05-05 21:42:00,64.0,23.0,-100.00,West,265,6.0,22.0,20,0.00,,,-99.99,,2013-05-06 01:42:00,
2013-05-05 21:52:00,64.0,21.0,-100.00,WSW,256,7.0,22.0,19,0.00,,,-99.99,,2013-05-06 01:52:00,
2013-05-05 22:02:00,64.0,21.0,-100.00,WSW,256,7.0,22.0,19,0.00,,,-99.99,,2013-05-06 02:02:00,
2013-05-05 22:12:00,64.0,23.0,-100.00,West,265,6.0,22.0,20,0.00,,,-99.99,,2013-05-06 02:12:00,
2013-05-05 22:21:00,62.0,21.0,-100.00,NW,306,7.0,22.0,20,0.00,,,-99.99,,2013-05-06 02:21:00,
2013-05-05 22:32:00,64.0,23.0,-100.00,West,278,9.0,22.0,20,0.00,,,-99.99,,2013-05-06 02:32:00,
2013-05-05 22:42:00,63.0,25.0,-100.00,WNW,289,9.0,22.0,22,0.00,,,-99.99,,2013-05-06 02:42:00,
2013-05-05 22:51:00,63.0,25.0,-100.00,West,276,9.0,22.0,22,0.00,,,-99.99,,2013-05-06 02:51:00,
2013-05-05 23:02:00,63.0,25.0,-100.00,West,276,9.0,22.0,22,0.00,,,-99.99,,2013-05-06 03:02:00,
2013-05-05 23:11:00,62.0,25.0,-100.00,WNW,289,9.0,22.0,23,0.00,,,-99.99,,2013-05-06 03:11:00,
2013-05-05 23:22:00,62.0,25.0,-100.00,West,275,10.0,22.0,24,0.00,,,-99.99,,2013-05-06 03:22:00,
2013-05-05 23:33:00,61.0,23.0,-100.00,West,279,11.0,22.0,23,0.00,,,-99.99,,2013-05-06 03:33:00,
2013-05-05 23:42:00,61.0,23.0,-100.00,WNW,290,12.0,22.0,23,0.00,,,-99.99,,2013-05-06 03:42:00,
2013-05-05 23:52:00,62.0,25.0,-100.00,West,279,12.0,22.0,24,0.00,,,-99.99,,2013-05-06 03:52:00,